[Iaude] MPEC V38: 2023 VW [a=1.13,e=0.28,i=5.3,H=27.9]
    mpec at marsden.cfa.harvard.edu 
    mpec at marsden.cfa.harvard.edu
       
    Sat Nov  4 19:05:13 EDT 2023
    
    
  
M.P.E.C. 2023-V38                              Issued 2023 November 4, 23:03 UT
     The Minor Planet Electronic Circulars contain information on unusual
         minor planets, routine data on comets and natural satellites,
         and occasional editorial announcements.  They are published
    on behalf of Division F of the International Astronomical Union by the
          Minor Planet Center, Smithsonian Astrophysical Observatory,
                          Cambridge, MA 02138, U.S.A.
			  
             Prepared using the Tamkin Foundation Computer Network
                              MPC at CFA.HARVARD.EDU
            URL https://www.minorplanetcenter.net/    ISSN 1523-6714
                                    2023 VW                                     
Observations:
     K23V00W* C2023 11 03.26453801 19 49.546+32 14 04.24         21.13wXEV038F51
     K23V00W  C2023 11 03.27592501 19 42.939+32 13 48.88         21.29wXEV038F51
     K23V00W  C2023 11 03.28731001 19 36.246+32 13 32.26         21.23wXEV038F51
     K23V00W 1C2023 11 03.31358501 19 02.057+32 11 39.84         21.43GVEV038G96
     K23V00W 1C2023 11 03.31872701 18 59.072+32 11 27.28         20.83GVEV038G96
     K23V00W 1C2023 11 03.32387101 18 55.976+32 11 14.50         20.99GVEV038G96
     K23V00W  C2023 11 03.36176001 18 32.986+32 09 19.17         20.6 GVEV038H01
     K23V00W  C2023 11 03.36712701 18 29.914+32 09 04.05         20.7 GVEV038H01
     K23V00W  C2023 11 03.37681101 18 24.430+32 08 36.59         21.1 GVEV038H01
     K23V00W  C2023 11 03.37838101 18 40.077+32 10 48.46         20.51GVEV038F51
     K23V00W  C2023 11 03.38000601 18 39.025+32 10 44.80         20.67GVEV038F51
     K23V00W  C2023 11 03.38082201 18 38.496+32 10 42.90         20.71GVEV038F51
     K23V00W  C2023 11 03.38221401 18 21.380+32 08 20.89         20.4 GVEV038H01
     K23V00W mC2023 11 04.11767401 12 20.189+31 37 59.45               VEV038I52
     K23V00W mC2023 11 04.11827201 12 19.706+31 37 57.90         21.01GVEV038I52
     K23V00W  C2023 11 04.30759501 10 11.083+31 30 09.79         20.68GVEV038F52
     K23V00W  C2023 11 04.30830301 10 10.516+31 30 08.21         20.60GVEV038F52
Observer details:
F51 Pan-STARRS 1, Haleakala.  Observers J. Bulger, T. Lowe, P. Minguez, A.
    Schultz, I. Smith.  Measurers K. Chambers, T. de Boer, J. Fairlamb, H.
    Gao, M. Huber, C.-C. Lin, E. Magnier, Y. Ramanjooloo, R. Wainscoat, R.
    Weryk.  1.8-m Ritchey-Chretien + CCD.
F52 Pan-STARRS 2, Haleakala.  Observers J. Bulger, T. Lowe, P. Minguez, A.
    Schultz, I. Smith.  Measurers K. Chambers, T. de Boer, J. Fairlamb, H.
    Gao, M. Huber, C.-C. Lin, E. Magnier, Y. Ramanjooloo, R. Wainscoat, R.
    Weryk.  1.8-m Ritchey-Chretien + CCD.
G96 Mt. Lemmon Survey.  Observer J. B. Fazekas.  Measurers E. C. Beshore, D.
    Fay, J. B. Fazekas, D. C. Fuls, A. R. Gibbs, A. D. Grauer, H. Groeller, J.
    K. Hogan, R. A. Kowalski, S. M. Larson, G. J. Leonard, D. Rankin, R. L.
    Seaman, F. C. Shelly, K. W. Wierzchos.  1.5-m reflector + 10K CCD.
H01 Magdalena Ridge Observatory, Socorro.  Observers W. H. Ryan, E. V. Ryan.
    Measurer W. H. Ryan.  2.4-m f/8.9 Ritchey-Chretien + CCD.
I52 Steward Observatory, Mt. Lemmon Station.  Observer D. Rankin.  Measurers
    E. C. Beshore, D. Fay, J. B. Fazekas, D. C. Fuls, A. R. Gibbs, A. D.
    Grauer, H. Groeller, J. K. Hogan, R. A. Kowalski, S. M. Larson, G. J.
    Leonard, D. Rankin, R. L. Seaman, F. C. Shelly, K. W. Wierzchos.  1.0-m
    prime focus + CCD.
Orbital elements:
2023 VW                                                  Earth MOID = 0.0008 AU
Epoch 2023 Sept. 13.0 TT = JDT 2460200.5                Veres                   
M 264.62658              (2000.0)            P               Q                  
n   0.81758348     Peri.  257.99742     -0.55522581     -0.82901873             
a   1.1326993      Node   225.93830     +0.79463411     -0.50508812             
e   0.2769089      Incl.    5.32790     +0.24552176     -0.24002904             
P   1.21           H   27.98          G   0.15           U   7                  
Residuals in seconds of arc
231103 F51  0.2+  0.0     231103 H01  0.0   0.0     231103 H01  0.0   0.0
231103 F51  0.1+  0.2+    231103 H01  0.1-  0.0     231104 I52  0.1+  0.2+
231103 F51  0.1+  0.0     231103 H01  0.1+  0.1+    231104 I52  0.5-  0.0
231103 G96  0.5-  0.2-    231103 F51  0.4+  0.2+    231104 F52  0.1-  0.2-
231103 G96  0.4+  0.1-    231103 F51  0.1+  0.1+    231104 F52  0.2+  0.2+
231103 G96  0.1-  0.1+    231103 F51  0.0   0.1-
Ephemeris:
2023 VW                  a,e,i = 1.13, 0.28, 5                   q = 0.8190
Date    TT    R. A. (2000) Decl.     Delta      r    Elong.  Phase     V
2023 10 05    01 55 22.4 +31 42 41   0.1733  1.1504   147.6    27.8    25.7
...
2023 10 20    01 52 12.0 +33 27 49   0.09369 1.0825   156.3    21.7    24.1
...
2023 10 28    01 43 04.4 +33 34 37   0.05513 1.0453   158.6    20.3    22.8
...
2023 11 03    01 21 29.7 +32 21 58   0.02736 1.0173   156.5    22.9    21.3
2023 11 04    01 13 13.5 +31 44 31   0.02283 1.0127   155.2    24.3    20.9
2023 11 05    01 01 09.7 +30 44 01   0.01834 1.0081   153.1    26.5    20.5
...
2023 11 11    15 59 01.9 -37 26 47   0.01065 0.9805    23.8   155.9    27.8
...
2023 11 19    14 25 10.1 -35 52 47   0.04687 0.9454    22.6   156.3    31.1
...
2023 12 04    14 17 58.4 -34 12 08   0.1207  0.8871    33.1   142.7    30.3
M. P. C. Staff               (C) Copyright 2023 MPC           M.P.E.C. 2023-V38
    
    
More information about the Iaude
mailing list